STARLINK-1183, 45088

Orbit data source: Space-Track

STARLINK-1183, 45088 is a payload satellite owned by SpaceX/Seattle (US) in LEO that was launched on Wed, 29 Jan 2020 UTC via an FALCON 9 launch vehicle from the Air Force Eastern Test Range (AFETR). Payload-class satellites include a variety of spacecraft equipped with specific instruments for various scientific and technological missions. These include communications satellites like Starlink; space stations such as the ISS; scientific satellites like the Hubble; Earth observation satellites from companies like Planet Labs, Umbra, and HawkEye 360; GPS; miniature CubeSats for education and research; and military/defense satellites.

Loading next visibility...
Identifier
45088, 2020-006AW
Orbit
LEO
Country
Flag of USUS
Related business
Manufacturer
SpaceX/Seattle
Mission
Operational Commercial Communications
Bus & Motor
STARLINK, Unknown motor
Mass
260 kg wet, ~248 kg dry
Launch date (UTC)
2020-01-29 (6 years ago)
Launch vehicle
FALCON 9
Launch site
Air Force Eastern Test Range (AFETR)
Object type
Payload
Rocket body
Debris
Shape & HBR
Box + 1 Pan, 10.1 m
Radar Cross Section
13.562 m², Large (>1 m²)

Expand to show TLE details & history
Last TLE update: 1 day ago

TLE from 1 day ago
0 STARLINK-1183
1 45088U 20006AW  25314.47402279  .00003075  00000-0  22514-3 0  9995
2 45088  53.0570  61.7994 0001199 100.2932 259.8193 15.06409854319057
Epoch: 2025-11-10T11:22Z
TLE epoch observation values (Epoch: 2025-11-10T11:22:35.569Z)
Latitude
0.00006°
Longitude
-158.72317°
Altitude
548.208 km
Speed
7.589 km/s
True Right ascension
04h 07m 11s
True Declination
0° 00' 00"
Sunlit
Object was in full shadow at epoch
Visualization orbit readout
Latitude
Unknown
Longitude
Unknown
Altitude
Unknown
Speed
Unknown
Apparent Right ascension
Unknown
Apparent Declination
Unknown
Sunlit
N/A
Visualization observer readout
Local Sidereal Time
09:32:49
Azimuth
Unknown
Elevation
Unknown
Doppler factor
Unknown
Orbital elements
Apogee altitude
548.282 km
Perigee altitude
546.621 km
Semi-major axis
6,925.589 km
Eccentricity
0.00012
Inclination
53.057°
RAAN
61.7994°
Arg. of periapsis
100.2932°
True anomaly
259.80578°
Mean anomaly
259.8193°
Eccentric anomaly
259.81254°
Mean motion
3.76581 °/min
Orbital period
95.6 mins
BSTAR
0.00022514
Loading maneuver chart data...
Computing Atmospheric mass density...

Documentation

Showing up to 5 results
|